Погода в Монтане

Болгария     43°24′30″N   23°13′34″E
темп.,
°C
ветер,
м/с
пор.,
м/с
влажн.,
%
обл.,
%
осадки,
мм/ч
давл.,
гПа
погр.,
м
19 сентября, вс
вс1900:00+15юз33700 0.0 101529
03:00+14юз2268100 0.0 101521
06:00+15юз116071 0.0 101411
09:00+18з1149100 0.0 101497
12:00+21з124289 0.0 1014466
15:00+26зсз253596 0.0 10121725
18:00+27сз573334 0.0 10101657
21:00+19ссз2241100 0.0 101119
20 сентября, пн
пн2000:00+18зюз1147100 0.0 101211
03:00+17юз115744 0.1 101211
06:00+16ююз11605 0.0 101111
09:00+19всв114620 0.0 1012172
12:00+24в223333 0.0 1011779
15:00+29с442856 0.0 10091461
18:00+21сз8116658 0.9 1011965
21:00+18зсз388031 9.0 1015470
21 сентября, вт
вт2100:00+15сз411795 0.0 1017341
03:00+14сз36845 0.0 1018153
06:00+13зсз358338 0.0 1019110
09:00+15зсз496295 0.0 1021858
12:00+19сз68438 0.0 10221493
15:00+21зсз67357 0.0 10212042
18:00+21сз67285 0.0 10202188
21:00+15ссз49430 0.0 1022226
22 сентября, ср
ср2200:00+13зюз22530 0.0 102328
03:00+12з23550 0.0 102243
06:00+11з3556100 0.0 102187
09:00+14зсз4844100 0.0 10211002
12:00+17ссз7935100 0.0 10211863
15:00+17с6735100 0.0 10192068
18:00+13с5866100 0.4 1020814
21:00+13сз375996 0.4 1020695
23 сентября, чт
чт2300:00+10сз39736 0.1 1020265
03:00+9зсз38745 0.1 1020207
06:00+7з11785 0.0 102018
09:00+10зюз11645 0.0 1020223
12:00+16сз45384 0.0 10191668
15:00+18сз45304 0.0 10171868
18:00+19ссз35260 0.0 10161877
21:00+13зсз22395 0.0 101811